RH
20 19 18 17 18 21 24 27 30 36 47 57 63 65 65 62 60 60 63 67 72 79 86 92 96 100 102 102 103 104 106 107 109 108 107 104 101 99 96 93 92 93 95 98 100 101 101 102 104 104 104 104 103 103 103 102 101 101 102 101 100 100 101
21 20 19 18 17 19 23 27 31 35 42 53 64 72 78 79 77 74 70 68 69 72 77 84 91 96 99 101 102 104 105 107 108 109 108 104 100 99 98 95 94 94 95 97 99 100 101 101 102 103 104 105 106 107 107 105 102 102 106 108 104 102 102
24 22 20 19 18 18 20 25 32 37 43 50 60 72 83 88 92 93 91 87 84 81 79 79 82 86 89 92 95 100 104 106 107 107 107 104 100 97 96 95 95 96 97 99 100 101 101 100 98 98 98 100 101 103 103 104 104 104 108 112 109 105 103
24 23 22 20 19 19 20 23 29 36 44 52 60 70 81 90 96 101 103 103 101 97 93 89 87 85 84 85 88 94 98 100 102 102 100 98 95 92 92 93 94 95 96 97 99 99 99 98 96 94 93 93 93 93 93 94 95 96 99 102 102 102 100
25 24 24 22 21 20 21 24 29 36 45 54 63 71 79 88 96 102 105 107 108 106 105 105 101 97 94 93 93 93 91 89 88 86 85 84 83 83 86 89 92 94 95 95 96 96 95 94 92 90 89 89 89 88 87 87 88 88 89 89 88 88 87
27 25 24 24 23 22 23 27 32 39 47 56 66 74 82 89 95 100 104 108 108 106 107 108 107 105 104 103 102 99 95 92 89 87 84 83 82 82 84 86 88 90 92 92 93 92 92 90 88 86 84 83 85 85 85 86 87 86 85 85 86 84 82
30 28 26 26 24 24 26 30 36 44 52 61 70 79 88 94 98 100 102 106 108 106 105 106 106 106 107 107 107 105 103 101 98 96 95 94 93 92 92 93 94 95 96 97 98 97 96 95 91 87 85 82 80 81 81 80 81 81 80 79 80 82 82
31 30 29 28 27 26 28 32 40 49 57 65 74 84 93 99 103 104 104 105 106 106 105 105 105 106 105 105 104 103 103 104 104 104 104 104 105 105 105 106 106 107 106 105 106 105 104 105 101 94 91 87 82 81 80 77 78 80 80 80 78 77 76
32 33 32 31 31 29 30 34 42 53 63 70 77 85 95 101 105 107 107 107 106 105 106 107 107 107 105 105 106 105 105 106 107 107 106 106 108 109 108 108 108 109 109 108 109 108 107 110 108 101 98 95 91 90 90 87 86 87 88 89 91 90 85
32 34 35 35 35 35 35 37 43 54 66 77 83 87 93 100 105 107 108 108 106 104 105 106 106 107 107 107 108 109 108 109 110 108 104 103 102 102 103 104 104 107 108 108 109 109 108 108 106 102 100 98 96 96 96 95 93 93 93 94 97 99 95
34 37 39 41 42 42 43 45 49 55 64 77 89 95 99 102 105 106 106 106 106 105 104 103 103 106 107 106 107 108 107 107 109 108 105 103 100 98 98 98 99 100 102 103 104 103 101 101 100 98 95 95 97 99 100 99 99 100 100 98 97 97 96
38 40 44 48 49 48 50 54 58 61 66 75 88 100 107 109 109 108 105 103 104 104 103 102 103 104 105 106 108 110 109 109 108 106 103 100 97 94 93 91 90 91 91 93 95 96 95 96 98 101 101 101 102 103 102 100 99 98 95 93 91 90 91
44 46 50 54 56 56 59 65 68 71 74 81 90 100 107 108 108 107 106 104 104 106 106 106 106 107 109 111 112 111 110 108 106 103 100 97 95 94 92 91 91 93 95 98 101 103 105 104 104 107 106 102 98 98 97 93 91 90 89 89 89 89 92
51 53 57 61 63 65 69 75 79 81 81 84 92 101 105 104 102 105 108 108 108 111 115 113 111 109 109 110 110 109 108 106 105 103 101 100 99 98 98 98 99 101 105 107 108 109 108 104 101 100 98 93 91 92 92 90 89 89 88 88 89 89 90
60 61 64 68 71 75 80 85 88 91 91 91 95 102 104 102 100 102 106 106 105 109 112 111 109 107 105 104 103 103 104 104 104 104 103 103 102 103 102 100 100 101 103 103 103 103 103 101 99 97 96 95 94 93 91 90 91 91 90 89 89 89 87
67 69 71 75 80 85 89 90 91 95 98 100 103 106 105 102 100 101 102 102 102 104 105 105 107 108 107 107 106 104 104 104 104 104 102 102 102 102 100 97 98 101 103 104 105 106 106 106 106 103 101 100 97 94 91 91 91 91 88 86 85 83 80
73 76 77 81 86 91 95 96 96 98 101 103 105 106 105 102 101 101 101 100 101 103 103 104 106 106 107 112 113 112 110 109 107 105 103 102 101 100 98 97 99 102 105 105 105 105 103 102 102 100 97 95 91 87 84 82 81 79 75 72 69 66 63
76 80 82 85 89 91 93 96 98 100 103 106 106 104 102 101 100 101 101 100 100 101 101 102 103 103 107 111 113 113 115 115 113 110 107 104 102 100 97 95 94 94 94 93 91 90 88 86 84 82 79 77 74 70 67 65 65 63 61 58 56 54 53
77 81 85 90 94 95 92 92 94 98 102 106 107 106 104 102 101 101 103 103 102 103 103 104 105 107 108 108 107 106 107 106 102 98 95 91 89 87 84 81 79 76 75 73 73 72 70 69 68 66 64 63 61 58 56 55 54 53 51 49 49 48 48
77 80 84 90 98 102 99 95 95 96 98 100 102 103 103 100 98 98 99 101 101 100 101 101 101 100 97 95 94 92 90 87 84 82 81 80 81 82 80 78 76 73 72 70 69 67 65 64 62 59 58 56 55 54 53 51 50 48 46 44 44 44 45
76 78 80 85 93 101 104 104 102 100 99 98 96 95 94 93 93 92 91 91 91 90 89 89 88 87 86 85 85 84 83 83 82 83 83 83 84 85 84 82 80 78 77 76 74 72 69 66 63 60 57 56 55 54 53 51 49 47 45 44 43 43 44
73 75 76 78 83 91 97 101 103 102 101 101 99 96 95 94 94 94 93 92 91 89 89 89 88 88 88 88 88 87 87 86 86 87 87 87 87 85 83 82 82 80 79 77 76 74 71 68 65 62 60 58 57 55 52 50 48 47 45 45 45 45 45
68 71 72 73 75 80 86 91 96 98 99 100 101 101 102 103 103 102 102 101 99 98 97 96 95 94 92 91 90 88 86 85 83 82 81 80 78 76 75 75 74 74 73 72 71 69 67 65 62 60 59 58 57 55 54 53 53 53 52 52 51 51 50
62 64 66 68 69 72 76 80 84 87 91 94 96 97 98 100 102 102 101 100 99 99 98 95 93 91 89 87 86 84 82 80 78 77 76 74 72 71 71 70 70 70 69 69 69 68 66 66 65 64 64 64 63 62 61 61 59 57 56 56 54 52 51
57 58 60 62 63 65 68 71 73 75 78 81 84 86 85 86 86 87 87 87 86 86 86 84 82 81 80 80 79 79 78 78 78 77 76 75 74 74 74 73 72 72 72 73 73 72 72 72 72 71 69 68 66 65 63 61 60 58 58 58 57 56 55
53 54 56 57 59 61 62 64 66 69 70 71 72 74 74 74 73 73 74 75 75 76 77 77 77 76 76 76 77 78 79 80 80 79 78 77 77 76 75 74 74 73 73 74 75 75 76 77 76 74 72 69 68 67 65 64 64 65 65 63 60 58 56
53 54 54 56 59 61 61 62 64 67 70 70 70 70 70 71 70 71 72 74 75 78 79 80 79 78 77 77 77 77 77 76 75 74 74 74 73 72 71 71 71 71 71 72 73 74 75 76 74 72 71 70 69 70 69 68 67 66 64 60 56 54 54
58 58 58 59 61 63 64 66 68 71 73 75 75 76 77 77 78 79 81 82 83 85 86 86 85 82 80 79 78 76 75 73 72 72 72 72 70 69 69 69 68 68 68 69 70 72 73 73 72 73 73 72 71 70 67 63 61 60 59 57 56 55 55
69 69 69 69 70 71 73 75 76 78 80 82 84 85 87 88 88 89 89 89 88 89 90 88 86 84 83 82 80 78 76 74 73 73 73 73 72 71 71 71 69 68 69 69 71 72 74 75 76 77 74 70 67 65 62 59 59 60 60 60 59 57 55
73 74 74 75 76 77 79 79 80 82 83 85 86 87 89 91 92 91 90 89 87 88 87 85 82 80 79 77 75 74 74 73 74 75 76 77 78 78 77 75 73 71 71 73 75 77 77 78 77 75 71 68 66 64 63 62 63 64 63 62 59 57 55
75 76 76 77 78 79 79 79 79 80 81 80 81 81 82 84 84 82 81 78 77 77 77 75 74 74 75 75 75 77 81 83 84 86 88 88 88 86 82 79 77 76 77 79 80 80 78 77 75 73 71 70 69 69 68 68 67 65 63 61 59 57 55
87 85 85 86 85 84 83 81 79 78 76 76 76 76 76 76 76 76 77 76 77 80 82 83 85 87 89 91 91 93 96 97 98 98 98 97 95 92 89 87 85 84 84 85 83 81 79 78 76 76 76 76 75 74 72 70 66 62 60 60 58 57 54
96 95 94 94 93 92 90 89 88 87 85 85 85 85 85 85 85 88 90 90 91 94 96 98 100 100 101 102 101 102 103 103 103 103 101 99 97 96 96 96 93 89 87 85 83 83 84 82 81 81 80 78 76 73 69 66 62 58 57 55 52 48 44
100 100 100 99 99 100 100 99 98 98 97 98 98 99 99 99 99 101 102 101 102 103 103 105 105 105 106 107 106 106 105 103 101 101 100 99 98 97 98 99 97 92 89 87 87 88 88 85 82 79 77 73 70 67 64 61 57 52 47 43 40 38 37
101 101 101 101 102 103 103 103 104 104 105 105 104 103 103 102 102 104 104 102 101 101 101 103 104 105 106 106 104 103 102 100 99 100 101 100 100 99 100 101 100 98 94 92 89 86 82 78 74 71 68 66 63 60 57 52 46 42 38 37 37 38 40
104 104 104 106 107 106 104 104 103 102 102 101 98 95 94 95 96 97 98 98 97 95 94 96 98 99 100 102 104 104 104 103 103 104 105 105 104 103 102 101 97 93 88 83 78 74 71 69 67 64 62 58 55 52 48 44 42 41 41 41 41 39 37
Wind_Speed
57 57 59 60 62 65 70 74 78 80 81 83 85 87 89 91 93 95 97 99 101 102 103 103 103 103 104 104 104 105 106 108 109 110 111 111 112 113 113 114 115 116 117 119 120 121 121 122 122 121 122 122 123 124 125 126 127 128 129 129 130 131 131
58 58 58 60 61 63 66 70 75 78 79 81 82 84 85 87 89 91 93 95 97 99 101 103 104 104 105 105 105 105 107 108 110 111 112 112 112 112 113 114 114 115 116 116 118 119 120 121 122 122 123 123 124 124 125 125 126 127 128 129 130 131 132
57 57 58 60 61 62 64 67 71 75 77 79 80 81 82 84 85 86 88 90 92 95 97 99 101 103 104 105 105 106 108 109 111 111 112 112 112 112 113 113 113 114 115 115 116 117 118 120 121 122 123 123 124 124 125 125 126 126 127 127 128 129 130
57 56 57 59 61 62 63 65 68 71 74 76 78 79 80 81 81 82 84 85 87 89 91 93 95 98 100 101 103 105 108 110 111 112 112 113 113 113 112 112 113 113 114 114 115 116 117 118 119 120 121 121 122 123 124 125 125 125 126 126 127 127 128
58 56 56 58 60 62 63 65 67 69 71 73 75 76 77 78 79 79 80 80 82 83 85 87 89 91 93 95 97 101 104 106 108 110 110 111 111 111 111 112 112 113 113 114 115 115 116 117 118 118 119 119 120 121 122 123 123 124 125 125 126 127 127
58 57 56 57 59 61 62 64 66 68 70 71 72 73 75 76 77 77 77 77 78 79 80 82 84 85 87 89 91 94 96 98 100 101 103 104 105 106 108 109 110 111 112 113 114 115 116 117 117 118 118 118 119 120 121 121 122 123 123 123 124 125 125
57 56 55 56 58 60 62 64 66 68 69 71 72 72 72 73 74 75 76 76 76 77 78 79 80 81 82 84 85 87 89 90 92 93 94 95 96 98 99 101 103 105 107 108 110 112 113 115 116 116 117 118 119 119 120 121 121 122 122 122 123 124 124
56 55 55 55 57 59 61 63 65 67 69 70 71 72 72 72 73 73 74 75 76 76 77 78 78 79 80 81 82 83 84 84 85 85 86 86 87 87 89 90 92 94 96 98 101 103 106 108 110 111 112 114 114 115 115 116 117 117 117 118 119 120 121
54 53 53 53 56 58 60 62 64 67 68 69 71 72 73 73 73 73 74 75 76 76 76 77 77 78 78 79 79 80 80 81 81 81 81 81 81 82 82 83 84 86 88 90 92 94 96 99 101 103 104 105 106 106 106 107 107 107 108 108 109 111 114
52 50 51 52 54 56 59 60 63 65 67 68 69 71 72 74 75 75 75 75 75 75 75 75 75 76 76 77 78 78 79 79 80 80 80 80 80 81 81 81 82 84 85 87 88 90 92 93 95 96 96 97 97 98 98 99 99 99 100 101 101 103 106
50 48 48 50 52 54 56 59 61 63 65 66 67 68 70 72 74 75 76 76 76 75 75 75 75 76 77 77 78 79 80 80 81 81 81 81 82 82 82 83 83 84 85 87 88 89 91 91 92 93 94 94 94 95 95 96 97 97 98 99 100 101 104
48 46 46 48 50 52 54 57 59 61 63 64 65 66 67 69 71 74 75 76 77 77 77 77 77 78 78 79 80 81 81 82 83 83 83 84 84 84 84 85 85 85 86 87 88 90 91 91 92 93 94 95 95 96 97 98 98 99 99 100 101 101 103
45 44 44 46 48 50 52 54 57 59 60 62 63 63 64 66 68 70 72 75 76 78 78 78 79 79 80 80 81 82 82 83 84 84 85 85 85 85 86 86 86 87 87 89 90 91 93 94 94 95 97 98 98 98 99 100 100 101 101 101 102 102 104
43 42 42 44 47 49 51 53 54 56 58 60 61 62 63 63 65 66 69 71 73 75 76 77 77 78 78 79 80 80 81 82 83 83 84 85 85 86 86 87 87 88 89 91 92 94 96 97 98 99 100 101 101 101 101 101 102 102 103 103 104 104 106
42 41 41 42 45 48 50 51 53 54 56 58 59 61 62 62 63 65 66 68 70 71 73 74 75 75 76 77 78 78 79 80 81 82 83 83 84 85 86 87 87 88 90 92 93 94 96 98 99 100 101 101 102 102 102 102 102 103 103 103 103 104 106
40 39 40 41 44 46 49 50 51 53 54 55 57 59 61 62 63 64 65 67 68 69 71 72 73 74 75 76 77 77 78 79 80 81 81 82 83 84 85 85 85 86 88 89 90 91 93 95 96 97 99 100 100 101 100 100 100 101 102 101 100 101 103
39 39 39 41 43 46 48 49 51 52 53 54 56 57 59 61 62 63 64 65 67 68 69 70 71 72 73 74 76 77 78 78 79 80 80 81 81 82 83 83 82 83 84 86 87 88 90 92 93 95 96 98 98 99 99 98 98 99 100 100 100 100 101
39 39 40 41 43 45 47 49 50 51 52 54 55 56 58 60 61 63 64 65 66 66 67 68 69 70 71 72 74 75 76 77 78 78 79 79 80 81 81 82 82 83 84 85 86 88 90 91 93 94 96 97 97 98 98 98 98 99 100 100 100 100 101
39 40 41 42 44 46 47 48 50 51 52 53 55 56 58 59 61 62 63 64 66 66 67 68 69 70 71 71 72 73 74 76 76 77 78 78 79 80 81 82 83 84 85 86 87 89 90 92 94 95 96 97 98 98 99 98 98 99 99 98 98 99 100
40 41 42 43 45 46 48 49 50 51 52 53 54 55 57 58 60 61 63 64 65 66 67 68 69 70 71 72 72 73 74 75 76 77 78 79 79 81 82 83 85 86 87 88 90 91 92 94 96 96 97 97 98 99 99 99 98 98 98 97 96 97 98
40 41 42 44 45 47 48 50 51 52 52 53 54 55 56 57 58 60 61 62 64 65 66 67 68 69 71 72 73 74 74 75 76 78 79 80 82 83 85 86 88 89 90 91 93 94 96 97 98 98 98 99 99 100 100 99 99 98 97 96 96 97 98
41 41 43 44 46 47 49 50 52 53 53 54 55 56 57 57 58 59 61 61 62 64 65 66 68 69 71 72 73 74 75 76 78 79 80 82 83 85 86 87 89 91 92 93 94 96 97 98 99 99 99 99 99 99 98 98 98 97 97 96 96 96 98
41 42 43 44 45 47 49 50 52 53 54 56 57 57 58 59 60 61 62 62 63 64 65 66 68 69 71 72 73 74 75 76 77 78 80 81 82 83 84 85 87 88 89 91 92 93 94 95 96 96 97 97 98 97 97 98 98 98 98 99 99 100 101
43 43 43 44 45 47 48 49 51 53 54 56 57 58 59 61 61 63 64 64 65 66 67 68 69 70 71 72 73 73 74 76 77 77 79 80 80 81 82 83 84 86 87 88 90 91 93 94 96 97 97 98 99 99 100 102 102 103 104 105 106 107 108
44 44 44 44 45 46 47 49 50 52 53 55 56 58 59 61 62 63 64 65 65 66 67 68 69 70 71 71 72 73 74 75 77 77 79 79 80 81 83 84 85 86 87 89 91 92 94 96 98 100 100 101 102 104 105 107 108 109 110 111 112 113 114
45 46 45 45 46 47 48 49 50 51 52 54 56 57 59 60 61 62 63 64 65 66 67 69 70 71 72 72 73 74 76 77 79 80 81 82 83 84 85 86 87 89 90 92 93 95 97 100 102 103 105 106 107 109 111 112 113 114 116 117 117 117 118
46 47 47 47 47 48 49 50 50 51 52 53 55 57 58 59 61 62 63 64 66 67 69 70 72 73 74 75 76 77 78 80 81 82 84 85 86 88 89 90 92 93 94 96 97 99 101 104 106 107 109 110 112 113 115 116 116 117 118 119 118 117 117
48 48 49 50 50 51 51 52 52 53 54 55 56 58 59 61 62 63 65 67 68 70 72 74 75 76 77 78 79 81 82 84 85 86 88 90 92 93 94 96 97 99 100 101 102 104 106 108 110 112 113 114 115 116 117 116 116 116 116 116 115 115 115
51 51 52 53 54 54 55 56 56 57 58 59 60 61 62 64 65 66 68 70 71 73 75 77 79 81 82 83 84 85 87 89 90 91 93 95 97 98 100 102 103 104 105 106 107 109 110 112 113 114 115 115 115 115 115 115 114 114 115 115 115 115 115
55 56 57 57 58 59 60 61 61 62 63 64 65 66 67 68 70 71 73 74 76 77 80 82 84 85 87 88 89 91 92 94 95 97 99 101 102 104 106 107 108 108 109 110 111 112 113 114 115 115 115 115 114 114 114 114 114 115 115 116 116 117 117
61 61 62 62 63 64 65 66 66 67 68 69 70 71 73 74 75 77 78 80 81 82 84 87 88 90 92 94 95 96 98 99 101 103 105 106 108 109 111 111 111 111 112 112 113 114 114 114 114 114 114 114 115 115 116 117 117 118 118 118 118 119 119
66 66 66 67 68 69 70 71 72 72 73 74 75 77 78 79 81 82 84 85 86 87 89 91 93 95 97 99 100 102 103 105 106 108 110 111 112 114 114 115 114 114 114 114 114 114 114 115 115 115 115 116 117 118 119 120 120 120 119 119 119 119 119
70 70 71 71 73 74 75 76 76 77 78 79 80 82 83 84 85 87 89 90 91 92 94 96 98 100 102 104 105 106 108 109 111 112 113 114 114 115 116 116 116 115 115 115 114 115 115 117 117 118 118 119 120 121 121 122 121 121 120 119 118 117 117
74 75 75 76 77 78 79 80 81 81 82 83 85 86 87 88 89 91 93 95 95 96 98 100 102 103 105 107 108 109 110 112 113 113 114 114 114 115 115 116 116 116 116 116 117 117 118 119 120 120 120 121 121 121 122 122 121 120 119 117 115 113 112
79 80 81 82 83 84 85 85 85 86 86 88 89 90 91 92 93 95 97 98 98 100 101 102 104 105 107 108 109 110 111 111 112 113 113 113 114 114 115 117 117 118 119 119 119 120 120 120 120 120 120 120 120 121 121 121 120 118 115 112 110 108 106
84 85 86 87 89 89 90 90 90 90 91 93 93 94 94 94 96 97 98 99 100 101 102 103 104 106 107 108 109 110 111 111 112 113 114 115 116 117 118 118 119 120 120 120 120 120 119 119 119 119 119 119 119 119 118 117 115 113 110 108 105 103 102
Wind_Direction
280 277 272 268 264 261 258 255 253 252 252 253 253 253 253 253 253 253 253 253 253 253 253 253 253 254 254 254 254 254 255 256 256 257 257 256 256 256 256 255 255 256 256 256 256 257 257 257 258 259 260 260 260 261 261 262 262 262 263 263 264 264 265
281 278 274 271 266 263 260 257 254 252 251 252 253 253 253 253 253 253 254 254 254 254 254 254 254 254 254 254 254 255 255 256 256 257 257 257 256 256 256 256 256 257 257 257 258 258 258 258 259 259 259 260 260 261 261 262 262 263 264 264 265 265 265
281 278 275 271 268 265 262 259 256 252 251 251 252 253 253 254 254 254 254 254 254 254 254 254 254 254 254 254 255 255 255 256 256 257 257 257 257 257 257 257 257 258 258 258 258 259 259 260 260 260 260 261 261 262 262 263 263 264 264 265 265 266 266
282 279 275 272 268 266 263 261 258 254 251 250 250 251 252 253 254 254 254 254 254 254 254 255 255 255 255 255 255 255 255 256 256 257 257 257 258 258 258 259 259 259 259 260 260 260 260 261 261 261 262 262 262 263 263 264 264 264 265 265 266 266 267
284 280 275 271 268 265 263 261 259 256 253 250 249 249 250 251 252 253 254 255 255 255 255 255 255 255 255 256 256 256 256 256 257 257 258 258 259 260 260 261 261 262 262 262 262 262 262 262 262 262 262 263 263 264 264 264 265 265 265 265 266 266 267
286 282 276 271 267 264 262 260 258 256 254 252 250 250 250 250 251 252 253 254 255 255 256 256 256 256 256 256 256 257 257 258 258 259 259 260 261 261 262 262 262 263 263 264 264 264 264 264 264 263 263 263 264 264 264 265 265 265 266 266 267 267 268
286 283 278 272 267 263 261 259 257 255 254 253 251 250 250 250 251 252 252 253 254 255 256 256 257 257 257 257 257 258 258 259 260 260 261 261 262 262 263 263 264 264 264 265 265 265 265 265 265 265 265 265 265 265 265 265 266 267 267 267 268 268 269
286 283 278 272 268 263 260 257 256 255 253 252 252 251 251 251 251 252 252 253 254 254 255 256 257 258 258 259 259 260 260 261 262 262 262 263 263 263 264 264 264 264 264 265 265 265 265 266 266 266 266 266 266 266 267 267 267 268 269 269 269 269 269
287 284 278 272 267 263 259 257 255 254 253 252 251 251 251 252 252 252 253 253 254 255 256 257 259 260 261 262 262 263 263 264 264 264 264 263 263 263 263 263 263 263 263 264 264 264 265 265 266 266 267 267 268 268 268 268 268 269 269 270 270 270 270
288 283 277 271 267 262 259 257 255 253 252 252 252 251 251 252 252 253 254 255 256 256 257 258 260 261 262 263 264 265 265 265 265 265 265 264 264 264 263 263 263 263 263 264 264 265 265 266 266 267 268 268 269 269 269 270 270 270 270 270 270 271 271
287 282 276 271 267 262 259 257 255 254 253 252 252 252 252 253 253 254 255 256 257 258 258 259 260 261 261 262 263 264 265 265 265 265 265 265 265 265 264 264 264 264 264 265 265 266 266 267 268 269 269 269 270 270 270 270 270 270 270 270 270 271 272
286 281 275 270 266 263 260 257 255 254 253 253 253 253 253 253 253 254 254 255 256 257 258 258 259 260 261 261 262 263 264 265 265 266 266 266 266 266 266 266 266 267 267 268 268 269 269 269 270 270 270 270 270 270 269 269 270 270 270 271 271 272 273
284 279 274 270 266 263 261 258 255 254 254 254 254 254 255 255 254 254 255 255 256 257 258 258 259 260 261 262 263 264 264 265 266 267 267 268 268 268 269 269 269 270 270 270 270 270 270 270 270 270 270 269 269 269 270 270 271 271 272 272 273 273 273
282 277 273 269 266 264 261 259 257 255 254 254 255 255 256 256 256 256 256 256 257 258 258 259 260 261 262 262 263 264 265 266 267 267 268 268 268 268 268 269 269 269 269 269 269 269 269 269 269 269 269 270 270 271 271 272 272 273 273 273 274 274 274
281 276 272 269 266 264 262 260 258 257 256 255 255 256 257 257 258 258 258 259 259 260 260 261 262 263 263 264 264 265 265 266 266 267 267 267 268 268 268 268 268 268 268 268 268 269 269 270 270 271 271 271 272 272 272 273 273 274 274 274 275 275 275
280 276 272 269 266 263 262 261 260 258 257 256 256 256 257 257 258 259 260 261 262 262 263 264 264 265 265 265 266 266 266 267 267 267 267 267 268 268 268 268 269 269 269 269 270 270 270 271 271 272 272 272 273 273 274 274 275 275 275 275 275 275 276
279 276 273 269 267 264 262 261 261 260 259 258 257 257 257 257 258 259 260 261 262 263 264 265 266 266 267 267 268 268 268 268 268 268 269 269 269 270 270 271 271 270 270 271 271 271 271 271 272 272 272 273 273 273 274 274 274 274 275 275 275 275 276
280 277 273 270 267 265 263 262 262 261 260 259 259 258 258 258 259 259 260 261 262 263 264 265 266 267 267 268 269 269 270 270 270 270 271 271 271 271 271 271 271 271 270 270 270 271 271 271 271 272 272 273 273 274 274 274 275 275 276 276 277 277 278
280 277 274 271 269 267 265 264 263 262 262 261 260 260 260 260 260 261 261 262 262 263 264 265 265 266 267 267 268 269 269 270 270 271 271 272 272 273 273 273 273 273 273 273 273 273 274 274 274 274 275 275 276 276 277 277 277 277 277 278 278 278 279
280 278 275 272 269 268 266 265 264 263 263 263 263 262 262 262 262 263 263 263 264 265 265 266 266 267 268 268 269 270 271 271 272 273 273 274 275 276 276 276 277 277 277 277 277 277 277 277 277 278 278 278 279 279 279 279 279 279 279 280 280 280 280
279 278 276 273 271 269 268 267 266 265 265 265 265 265 265 265 266 266 266 266 267 267 268 269 269 270 270 271 272 272 273 274 274 275 275 276 276 277 277 277 278 278 278 278 278 278 279 279 279 279 280 280 281 281 281 281 282 282 282 282 282 282 282
280 278 276 274 272 270 269 269 268 268 267 266 266 266 267 267 267 268 268 269 269 270 270 271 271 272 272 273 273 274 274 275 275 276 276 276 276 277 277 277 277 278 278 278 278 279 279 279 280 280 281 281 282 282 283 283 284 284 284 285 285 284 284
282 280 277 275 273 272 270 270 269 269 269 269 268 268 268 268 268 268 269 269 270 270 271 271 272 272 273 273 274 274 275 275 275 276 276 276 276 277 277 277 278 278 279 279 280 280 281 281 282 282 283 283 284 284 285 285 285 286 286 286 286 285 285
285 282 279 277 276 274 272 271 270 270 270 270 270 269 269 269 269 269 269 270 270 271 271 272 272 273 273 273 274 275 275 275 276 276 276 276 277 277 278 278 279 279 280 280 281 281 282 283 283 284 284 284 285 285 286 286 286 286 287 286 286 286 286
286 283 281 279 277 276 275 274 273 272 272 271 271 271 270 270 270 270 270 271 271 271 272 272 272 273 273 274 274 275 275 276 276 277 277 277 278 278 279 279 280 280 281 281 281 282 283 283 283 284 285 285 286 287 287 287 287 288 288 287 287 287 287
287 285 283 281 279 277 276 275 275 274 274 274 273 273 273 272 272 272 272 272 273 273 273 273 274 274 275 275 276 277 277 277 278 278 279 279 280 280 281 281 281 282 282 282 283 283 284 284 284 285 286 287 287 287 287 288 288 288 288 287 287 287 287
287 286 284 283 281 279 278 277 276 275 275 275 274 274 275 275 275 275 275 275 276 276 276 276 276 277 277 278 278 279 279 280 280 281 281 282 282 282 283 283 283 283 283 284 284 284 285 285 285 286 286 287 287 287 287 287 287 287 286 286 287 287 287
287 286 285 284 283 282 280 279 278 277 276 276 276 276 276 276 277 277 277 278 278 278 278 279 279 279 280 280 280 281 281 282 282 283 283 283 284 284 284 284 284 284 285 285 285 285 285 286 286 286 286 286 286 286 286 286 286 286 287 287 287 288 288
287 286 285 284 284 283 282 281 280 280 279 278 278 278 278 278 278 278 278 279 279 279 280 280 280 281 281 281 282 282 283 283 283 284 284 284 284 285 285 285 285 285 285 286 286 286 286 286 286 286 286 286 286 287 287 287 287 288 288 289 289 289 290
288 287 286 285 284 284 283 282 282 281 281 280 280 280 280 280 279 279 279 279 280 280 280 281 282 282 282 283 283 284 284 284 285 285 285 285 285 285 285 285 286 286 286 287 287 287 287 287 287 287 287 287 288 288 288 289 289 289 290 290 290 291 291
289 288 287 287 286 285 284 284 283 283 282 282 282 282 282 281 281 281 281 281 281 282 282 283 283 284 284 285 285 285 285 285 286 285 285 285 286 286 286 286 287 287 287 288 287 288 288 288 288 288 288 289 289 289 290 290 290 290 291 291 291 292 292
290 289 289 288 287 286 286 285 285 284 284 284 284 284 283 283 283 283 283 284 284 284 284 285 285 285 285 285 286 286 286 286 286 285 286 286 286 287 287 288 288 288 288 288 288 288 289 289 289 289 290 290 290 290 290 291 291 291 291 291 292 292 292
289 289 289 288 287 287 286 286 286 286 286 286 285 285 285 285 285 285 284 284 285 284 284 284 284 284 284 284 285 285 285 285 285 285 286 286 287 287 288 288 288 288 288 288 289 289 289 289 290 290 290 290 290 290 290 291 291 291 291 291 291 291 291
289 289 288 287 287 286 286 286 286 285 285 285 284 284 284 284 284 284 283 284 284 283 283 283 283 283 284 284 284 284 285 285 285 286 286 287 287 288 288 288 288 288 289 289 289 289 289 289 289 290 290 290 290 290 290 290 290 291 291 291 291 291 291
290 289 288 287 287 286 286 286 286 285 285 284 283 283 284 284 283 283 283 283 283 283 283 284 284 284 284 284 285 285 285 286 286 287 287 287 287 287 288 288 288 288 288 288 289 289 289 289 289 289 290 290 290 290 290 290 290 290 290 290 290 290 291
289 289 288 288 288 287 287 288 287 287 286 286 285 285 285 285 285 285 285 285 285 285 285 285 285 285 286 286 286 286 286 287 287 287 287 287 287 287 287 287 287 288 288 288 288 288 289 289 289 289 290 290 290 290 289 289 289 290 290 290 290 290 291